Regional Weather Roundup
Issued by NWS Nashville, TN

Home | Current Version | Previous Version | Text Only | Print | Product List | Glossary On
Versions: 1 2 3 4 5 6 7 8 9 10 11 12 13 14 15 16 17 18 19 20 21 22 23 24 25 26 27
000
ASUS44 KOHX 270510
RWROHX
MIDDLE TENNESSEE HOURLY WEATHER ROUNDUP
NATIONAL WEATHER SERVICE NASHVILLE TN
1200 AM CDT SUN MAY 27 2018

NOTE: "FAIR" INDICATES FEW OR NO CLOUDS BELOW 12,000 FEET WITH
NO SIGNIFICANT WEATHER AND/OR OBSTRUCTIONS TO VISIBILITY.

* THESE REPORTS ARE NOT UNDER NWS QUALITY CONTROL AND MAY NOT
  REPORT WEATHER SUCH AS PRECIPITATION AND FOG.


TNZ005>011-023>034-057-059-062>066-078-080-270600
...NORTHERN MIDDLE TENNESSEE...

CITY           SKY/WX    TMP DP  RH WIND       PRES   REMARKS
CLARKSVILLE      N/A     70  67  90 CALM      29.89F
CROSSVILLE       N/A     67  66  97 CALM      29.98S
DICKSON        CLEAR     70  68  94 CALM      29.91F FOG
LIVINGSTON     CLOUDY    68  68 100 CALM      29.94S
NASHVILLE        N/A     71  69  93 S6        29.91F
PORTLAND       CLEAR     70  68  94 S5        29.90F
ROCKWOOD       CLOUDY    66  66 100 SE5       29.97R
SMYRNA           N/A     70  69  97 SE3       29.92S
SPARTA         CLOUDY    70  68  94 CALM      29.93S
SPRINGFIELD    MOCLDY    70  70 100 S5        29.90S
WEST NASHVILLE CLEAR     70  70 100 CALM      29.89S FOG
$$
TNZ056-058-060-061-075>077-079-093>097-270600
...SOUTHERN MIDDLE TENNESSEE...

CITY           SKY/WX    TMP DP  RH WIND       PRES   REMARKS
COLUMBIA       CLEAR     70  70 100 CALM      29.90F
LEWISBURG      CLEAR     66  66 100 CALM      29.91F
MCMINNVILLE    PTCLDY    68  68 100 CALM      29.93F FOG
MURFREESBORO   CLOUDY    72  68  88 CALM      29.90F
PULASKI        CLOUDY    70  68  94 CALM      29.91F
SHELBYVILLE    PTCLDY    68  68 100 CALM      29.92S
TULLAHOMA      CLEAR     68  66  94 CALM      29.92F
WINCHESTER     CLEAR     68  68 100 CALM      29.93S
$$


...KEY TO REMARKS...
VSB - VISIBILITY IN MILES
WCI - WIND CHILL INDEX
HX  - HEAT INDEX





USA.gov is the U.S. government's official web portal to all federal, state and local government web resources and services.